User: anonymous   Login
Location: Unspecified
(0.0000°N, 0.0000°E)
Time: 10:55:03
(UTC+01:00)
Language:

NOAA 12 - Orbit

View from above orbital plane
View from above orbital plane
View from above satellite
View from above satellite

Ground track
Ground track

The orbit data is extracted from the following two-line orbital elements,

1 21263U 91032A   16342.51156688  .00000002  00000-0  19095-4 0  9995
2 21263  98.5812   4.7264 0014766 119.4892 240.7763 14.25829271329419
Epoch (UTC): 07 December 2016 12:16:39
Eccentricity: 0.0014766
inclination: 98.5812°
perigee height: 795 km
apogee height: 816 km
right ascension of ascending node: 4.7264°
argument of perigee: 119.4892°
revolutions per day: 14.25829271
mean anomaly at epoch: 240.7763°
orbit number at epoch: 32941

The dashed part of the orbit path shows where the satellite is in the earth's shadow,  

DLR